This demonstration page uses our WeatherBlox Daily Observations layout. Learn more.

39.01783, -85.05884

Hourly Observations for August 5, 2020

Temp ( °F °C ) Dew Point ( °F °C ) Humidity (%) Winds ( mph kmh ) Pressure ( in mb ) Visibility ( mi km ) Precip ( " mm )
12:52 am 00:52 Clear 64 17.8 56 13.3 75 75 N 7 11 30.05 1018 10 16.0934 0 0
1:52 am 01:52 Clear 63 17.2 56 13.3 78 78 N 7 11 30.05 1018 10 16.0934 0 0
2:52 am 02:52 Clear 62 16.7 55 12.8 78 78 N 7 11 30.06 1018 10 16.0934 0 0
3:52 am 03:52 Clear 61 16.1 55 12.8 81 81 N 6 9 30.06 1018 10 16.0934 0 0
4:52 am 04:52 Clear 60 15.6 55 12.8 84 84 N 5 7 30.06 1018 10 16.0934 0 0
5:52 am 05:52 Mostly Clear 59 15 54 12.2 83 83 N 6 9 30.07 1018 10 16.0934 0 0
6:52 am 06:52 Mostly Sunny 59 15 55 12.8 87 87 NNE 3 6 30.09 1019 10 16.0934 0 0
7:52 am 07:52 Partly Cloudy 60 15.6 55 12.8 84 84 N 3 6 30.1 1019 10 16.0934 0 0
8:52 am 08:52 Mostly Sunny 64 17.8 54 12.2 70 70 NNE 7 11 30.11 1020 10 16.0934 0 0
9:52 am 09:52 Mostly Sunny 67 19.4 54 12.2 63 63 ENE 3 6 30.11 1020 10 16.0934 0 0
10:52 am 10:52 Sunny 71 21.7 54 12.2 55 55 NNE 8 13 30.11 1020 10 16.0934 0 0
11:52 am 11:52 Partly Cloudy 73 22.8 56 13.3 55 55 W 5 7 30.11 1020 10 16.0934 0 0
12:52 pm 12:52 Mostly Cloudy 73 22.8 54 12.2 51 51 NW 5 7 30.11 1020 10 16.0934 0 0
1:52 pm 13:52 Mostly Cloudy 74 23.3 54 12.2 50 50 W 6 9 30.11 1020 10 16.0934 0 0
2:52 pm 14:52 Mostly Cloudy 76 24.4 54 12.2 47 47 NW 3 6 30.11 1020 10 16.0934 0 0
3:52 pm 15:52 Mostly Cloudy 76 24.4 54 12.2 47 47 NNW 8 13 30.09 1019 10 16.0934 0 0
4:52 pm 16:52 Mostly Cloudy 75 23.9 55 12.8 50 50 N 9 15 30.09 1019 10 16.0934 0 0
5:52 pm 17:52 Partly Cloudy 76 24.4 54 12.2 47 47 NNE 6 9 30.07 1018 10 16.0934 0 0
6:52 pm 18:52 Partly Cloudy 75 23.9 54 12.2 48 48 N 8 13 30.06 1018 10 16.0934 0 0
7:52 pm 19:52 Mostly Cloudy 72 22.2 54 12.2 53 53 NNW 7 11 30.06 1018 10 16.0934 0 0
8:52 pm 20:52 Partly Cloudy 69 20.6 54 12.2 59 59 NNW 6 9 30.06 1018 10 16.0934 0 0
9:52 pm 21:52 Mostly Cloudy 67 19.4 54 12.2 63 63 N 6 9 30.06 1018 10 16.0934 0 0
10:52 pm 22:52 Mostly Clear 69 20.6 53 11.7 57 57 ENE 6 9 30.07 1018 10 16.0934 0 0
11:52 pm 23:52 Partly Cloudy 67 19.4 53 11.7 61 61 NE 6 9 30.08 1019 10 16.0934 0 0

Powered by AerisWeather